Wind_Speed
29 28 24 23 23 21 19 12 13 10 10 9 8 9 11 9 8 8 4 17 18 19 17 14 11 8 7 5 5 11 13 11 11 9 11 10 7 9 15 18 19 21 22 23 27
29 27 27 25 24 24 21 14 13 11 12 10 9 10 13 12 9 12 10 14 20 19 19 18 13 13 6 9 9 14 14 19 21 13 8 12 11 10 12 14 17 18 18 21 25
31 29 27 25 26 26 23 16 14 14 14 13 11 12 16 17 13 8 12 14 18 19 19 19 19 16 11 14 22 21 21 15 10 9 7 8 14 6 17 15 15 16 16 17 22
33 31 30 28 26 27 23 17 16 16 17 16 15 15 17 19 14 12 10 13 14 17 18 20 21 17 14 18 8 25 16 10 9 2 5 13 8 4 10 12 12 14 16 20 23
34 33 32 31 28 28 24 17 15 18 19 18 16 16 17 19 15 11 11 13 14 14 16 22 22 20 19 5 13 12 6 8 12 3 4 10 9 4 7 11 12 14 17 20 24
34 33 31 30 28 28 26 22 17 18 20 18 18 17 17 20 14 13 13 14 14 14 16 22 25 25 13 3 3 20 5 5 8 10 4 2 21 18 12 10 13 14 17 18 21
34 35 35 32 30 27 25 21 18 19 23 19 17 17 18 20 18 16 15 14 14 15 16 22 33 32 15 9 15 26 8 8 7 11 7 14 16 17 11 9 15 16 15 17 19
33 32 32 34 32 27 25 21 18 19 22 22 17 15 17 16 18 17 16 15 14 15 17 16 20 25 24 17 13 15 8 24 18 12 12 14 22 17 1 8 11 14 15 16 17
35 33 31 30 29 28 27 24 19 18 21 23 21 17 16 16 17 17 17 17 17 17 17 18 23 26 20 9 7 8 17 21 12 11 5 18 16 29 13 4 16 14 17 15 15
36 35 33 32 29 27 26 24 20 20 22 23 23 21 21 16 14 16 18 19 18 19 20 20 22 24 23 12 11 30 29 20 12 8 12 12 13 21 26 19 24 11 12 17 15
38 36 35 33 31 29 28 27 27 25 21 23 24 22 23 17 13 14 18 19 19 19 22 22 22 24 20 14 15 30 19 8 10 8 16 10 6 10 22 22 13 21 8 14 15
39 38 37 35 33 32 31 32 26 27 23 25 25 23 21 18 17 17 17 18 18 19 22 23 22 20 16 15 14 15 27 13 9 11 15 6 8 10 17 8 13 19 19 21 16
40 39 38 36 35 34 33 31 29 28 26 26 28 26 24 22 18 16 17 19 19 19 22 20 15 12 20 18 21 19 14 10 9 11 14 9 11 7 20 14 15 18 23 21 14
41 41 39 37 35 33 34 29 29 28 27 23 28 29 29 28 24 19 18 19 21 20 20 21 19 17 17 25 18 19 13 13 12 11 11 15 15 15 24 21 8 13 19 20 20
37 38 39 39 36 38 31 31 29 26 27 16 25 30 25 25 25 26 20 19 20 21 22 19 23 18 25 22 23 17 13 10 17 17 13 14 18 18 26 12 10 13 19 17 21
35 35 35 38 38 39 35 32 31 29 31 18 25 20 25 23 22 22 24 21 20 23 25 24 17 22 20 19 17 15 13 11 14 13 16 13 13 14 25 6 11 19 22 24 23
34 35 35 35 38 36 36 34 34 37 25 19 16 25 21 22 22 23 23 22 21 21 23 23 27 24 24 21 15 17 13 12 10 11 10 12 16 19 24 23 26 31 31 28 23
32 32 33 36 36 36 39 38 39 33 28 11 14 16 20 20 21 24 23 21 20 20 14 15 20 23 21 22 19 19 16 14 13 11 17 24 22 17 24 26 20 25 29 25 18
27 27 27 29 34 40 39 42 39 30 16 23 22 22 16 19 19 20 24 21 18 18 21 13 15 15 21 22 21 16 17 17 19 19 19 24 13 18 21 23 19 20 18 17 15
26 25 25 25 28 35 41 39 35 29 38 32 30 16 19 17 21 23 21 23 21 19 19 22 15 17 20 17 21 21 11 15 18 19 18 11 20 24 26 24 16 16 14 13 15
26 27 24 23 25 31 35 31 30 38 43 42 37 29 17 17 19 23 23 20 21 20 21 21 22 15 19 21 19 18 24 19 16 14 21 24 20 25 29 17 13 15 15 14 13
29 31 27 25 24 24 27 29 36 32 41 38 34 32 27 25 22 21 16 20 21 22 22 23 22 21 17 18 19 22 16 19 19 23 21 20 25 30 30 9 17 16 18 15 13
32 35 30 28 25 24 25 29 40 41 34 32 34 34 38 36 30 25 21 23 30 28 34 24 24 23 23 16 17 16 21 19 20 19 25 18 22 23 9 16 25 19 20 16 14
20 19 24 30 33 31 32 33 33 28 31 35 35 36 39 40 41 35 30 19 32 35 31 32 27 29 24 20 15 21 21 22 22 21 18 16 20 22 31 24 14 18 21 17 16
21 27 25 23 26 32 34 35 31 31 31 33 33 31 33 33 31 34 35 34 20 37 35 33 38 33 26 28 23 22 16 23 24 30 27 20 30 32 32 36 23 10 19 18 17
19 21 20 26 25 24 26 30 30 31 35 34 31 31 31 31 29 28 24 18 24 16 25 34 35 35 37 35 27 21 17 20 19 21 24 25 34 40 36 44 28 8 16 18 20
16 17 19 21 23 24 25 27 29 38 34 30 35 34 32 33 36 29 38 37 34 38 32 35 37 36 37 34 33 31 25 23 18 23 18 24 34 40 42 29 12 7 14 20 22
Wind_Direction
216 218 224 236 250 255 262 262 264 255 248 246 244 223 205 222 225 221 216 176 183 182 188 180 170 172 137 114 323 38 138 99 124 19 143 355 9 41 41 48 52 52 52 42 34
215 217 223 233 242 252 258 258 255 238 234 235 240 218 213 218 225 206 215 196 182 183 187 191 187 194 145 117 302 296 91 67 67 1 4 306 355 23 32 39 48 52 47 31 27
218 220 224 232 242 250 257 262 252 236 226 226 225 217 216 220 224 211 209 217 185 188 185 187 185 188 144 103 272 300 73 65 65 180 270 215 69 308 23 38 40 41 35 25 24
218 223 226 231 240 250 256 258 248 230 226 221 221 221 220 223 226 226 212 211 210 189 182 183 178 175 158 100 307 306 70 60 248 183 60 326 70 265 22 22 32 43 32 24 20
220 221 226 232 239 247 251 253 240 230 228 224 225 224 229 229 220 230 217 208 212 202 183 182 175 170 159 170 156 269 119 257 271 262 182 231 283 341 359 17 21 36 24 16 19
219 220 224 228 234 242 252 253 242 227 224 228 228 230 231 237 225 227 228 212 210 207 197 185 173 162 169 261 40 244 196 259 250 279 312 156 184 203 138 351 4 18 21 16 20
223 221 221 225 233 239 246 249 234 229 221 222 229 228 232 234 231 222 224 225 212 213 200 195 186 176 127 135 256 217 250 249 243 258 312 295 291 276 107 105 343 359 11 16 19
225 225 226 228 233 235 238 245 241 235 225 221 225 229 233 231 234 227 226 224 221 214 210 210 197 183 158 168 208 240 232 232 196 200 291 271 286 300 138 23 338 349 352 7 12
228 227 227 227 228 229 236 242 242 239 229 225 227 229 234 231 230 228 226 223 220 217 212 213 203 192 175 195 232 231 247 299 247 187 191 271 313 326 358 3 2 348 339 347 356
231 231 230 228 228 228 231 238 240 236 229 224 229 230 228 231 232 226 225 224 217 215 209 215 214 205 193 196 208 238 223 211 182 121 296 272 321 319 329 347 324 325 337 336 340
232 232 232 232 231 231 231 236 237 235 228 224 226 231 231 232 233 229 225 223 217 213 208 215 216 212 204 217 213 277 296 283 161 169 250 244 235 292 287 302 297 308 319 338 343
231 231 232 232 232 232 233 235 237 241 230 227 227 223 229 231 233 234 228 224 218 212 209 211 216 212 218 226 243 248 293 338 360 281 287 229 271 243 259 249 282 304 246 343 334
232 232 233 232 232 233 233 234 237 240 234 230 227 226 232 229 231 236 232 225 219 212 212 212 219 279 224 220 240 231 242 237 256 279 282 260 250 272 238 244 269 320 295 323 318
232 232 232 234 234 236 235 233 236 240 242 226 233 229 235 238 232 236 230 227 219 213 214 220 189 230 221 234 230 237 248 259 239 261 257 264 245 274 286 291 281 303 327 312 316
231 233 232 232 233 234 234 234 235 236 241 250 243 231 233 235 233 226 228 225 222 216 218 216 212 224 232 235 233 227 244 257 258 253 248 259 291 289 269 315 267 254 303 292 297
231 232 231 232 232 233 230 230 230 231 231 231 247 236 234 230 233 238 224 226 222 221 218 215 208 233 237 223 222 231 228 236 232 242 254 254 245 264 288 143 230 275 296 308 293
233 233 232 232 233 232 230 229 228 227 211 197 256 243 233 235 230 236 235 232 233 229 229 220 227 230 233 227 233 232 210 237 245 244 290 280 239 235 255 257 258 275 289 297 287
234 232 231 231 231 230 226 225 227 226 217 208 232 248 232 232 238 231 237 232 230 228 219 247 239 239 232 228 216 235 212 215 230 243 271 245 210 235 270 281 266 257 267 279 294
224 225 227 231 230 228 225 226 227 225 220 232 241 211 218 211 220 251 231 233 235 225 214 210 256 252 263 238 228 226 236 216 237 256 278 298 295 296 265 274 274 265 263 277 286
222 225 228 230 228 223 224 224 223 224 222 214 204 218 230 224 230 218 236 231 221 232 231 193 235 206 247 235 226 199 236 253 227 250 247 247 239 232 258 251 257 262 253 272 285
221 223 220 222 223 222 223 221 219 221 225 223 224 212 197 207 233 241 227 232 236 215 231 228 214 190 229 238 212 230 212 213 227 246 255 248 243 258 269 183 270 275 276 269 283
220 224 216 218 219 218 216 213 212 213 225 226 230 230 206 197 216 207 209 230 231 218 220 232 223 219 206 243 250 204 240 240 230 231 250 287 287 278 283 281 277 279 274 273 283
218 224 220 219 217 220 215 209 220 224 225 223 223 222 221 198 207 196 180 223 222 214 209 209 230 214 201 204 247 251 212 231 257 261 234 268 275 263 257 226 286 285 271 265 271
231 228 229 222 218 221 215 218 226 223 221 216 217 215 219 223 224 216 182 233 224 224 224 212 215 229 218 226 228 270 242 234 222 233 246 257 256 256 261 257 243 267 268 264 276
218 218 223 220 229 212 223 224 220 223 220 221 222 226 230 231 229 231 219 211 247 235 229 225 223 219 226 206 222 232 277 251 258 247 237 231 248 232 248 268 247 155 260 262 270
224 227 226 230 232 235 234 225 225 228 227 222 224 224 227 230 229 228 223 225 207 240 246 227 231 230 234 213 217 230 239 243 233 248 242 226 246 265 271 272 259 233 266 270 280
225 223 223 229 227 226 228 231 234 224 227 228 228 224 230 234 225 218 214 220 215 222 229 224 231 234 234 230 228 233 231 239 246 268 252 245 248 257 263 272 294 197 271 289 282
Height
5908 5910 5912 5913 5915 5916 5917 5918 5918 5919 5921 5921 5923 5925 5926 5928 5929 5930 5931 5932 5933 5935 5938 5940 5942 5942 5942 5941 5940 5943 5942 5941 5938 5943 5937 5937 5938 5936 5933 5931 5930 5928 5926 5925 5923
5904 5907 5909 5911 5912 5913 5915 5917 5917 5917 5919 5920 5921 5923 5924 5926 5928 5929 5931 5931 5932 5934 5936 5940 5942 5942 5943 5945 5940 5939 5943 5944 5940 5950 5949 5941 5940 5937 5936 5934 5932 5931 5929 5927 5925
5901 5903 5905 5908 5909 5910 5911 5914 5915 5916 5917 5919 5920 5922 5923 5924 5927 5929 5929 5929 5932 5933 5934 5938 5940 5942 5944 5944 5934 5937 5941 5944 5946 5952 5949 5940 5942 5943 5935 5935 5934 5933 5931 5929 5926
5896 5900 5902 5905 5906 5908 5909 5911 5912 5913 5915 5917 5918 5920 5921 5923 5926 5926 5927 5928 5930 5932 5934 5936 5938 5942 5944 5943 5948 5945 5943 5952 5952 5951 5950 5946 5944 5947 5944 5940 5937 5935 5932 5929 5927
5892 5895 5898 5901 5904 5905 5906 5907 5908 5910 5912 5914 5915 5917 5918 5920 5923 5924 5926 5926 5928 5930 5932 5934 5937 5940 5941 5943 5945 5952 5951 5952 5950 5950 5950 5951 5950 5944 5945 5942 5939 5935 5932 5930 5928
5886 5890 5894 5897 5900 5901 5903 5904 5906 5907 5909 5911 5912 5914 5915 5917 5921 5922 5923 5925 5926 5928 5930 5933 5936 5938 5939 5942 5944 5949 5950 5953 5952 5949 5949 5949 5935 5932 5933 5943 5940 5935 5933 5931 5928
5882 5885 5889 5892 5895 5897 5899 5901 5903 5904 5906 5908 5910 5910 5913 5915 5917 5919 5921 5923 5924 5926 5928 5931 5930 5932 5937 5943 5948 5947 5949 5950 5952 5951 5949 5944 5944 5936 5933 5932 5940 5936 5935 5932 5928
5877 5880 5883 5887 5890 5893 5895 5897 5899 5901 5902 5905 5906 5908 5910 5913 5914 5916 5918 5920 5921 5924 5925 5928 5931 5932 5932 5939 5944 5946 5950 5944 5945 5950 5950 5947 5942 5943 5940 5936 5936 5935 5935 5932 5929
5871 5875 5878 5882 5885 5888 5891 5893 5896 5897 5899 5901 5903 5905 5907 5910 5912 5913 5916 5918 5919 5922 5923 5926 5928 5930 5933 5937 5942 5946 5947 5945 5945 5946 5950 5946 5944 5941 5935 5930 5932 5935 5934 5931 5929
5865 5869 5873 5877 5880 5884 5887 5889 5891 5893 5895 5898 5900 5903 5905 5908 5910 5911 5914 5916 5918 5920 5922 5924 5926 5928 5931 5936 5941 5935 5936 5935 5940 5941 5948 5946 5944 5939 5933 5916 5934 5936 5933 5930 5929
5859 5863 5867 5871 5874 5879 5883 5885 5887 5888 5892 5895 5896 5899 5902 5904 5907 5909 5911 5914 5916 5918 5921 5922 5925 5926 5930 5935 5940 5931 5935 5933 5942 5942 5945 5946 5947 5947 5939 5940 5939 5930 5924 5926 5928
5852 5857 5861 5865 5869 5873 5877 5878 5883 5884 5888 5890 5893 5896 5898 5901 5904 5907 5909 5911 5914 5916 5918 5921 5923 5926 5929 5934 5939 5940 5927 5937 5940 5942 5944 5945 5947 5946 5943 5939 5940 5934 5888 5920 5927
5845 5850 5855 5859 5863 5867 5871 5874 5877 5879 5882 5886 5888 5892 5895 5898 5901 5904 5907 5908 5911 5913 5915 5918 5924 5927 5927 5932 5935 5937 5938 5941 5944 5943 5942 5942 5942 5943 5937 5936 5938 5935 5929 5926 5925
5837 5843 5848 5852 5858 5862 5864 5870 5873 5875 5877 5883 5883 5887 5890 5894 5898 5901 5903 5906 5908 5912 5913 5915 5921 5923 5925 5926 5930 5933 5935 5938 5940 5942 5943 5940 5939 5940 5935 5929 5931 5931 5929 5927 5924
5830 5835 5841 5845 5851 5853 5862 5864 5868 5872 5874 5880 5879 5882 5888 5891 5893 5896 5899 5902 5905 5908 5911 5914 5916 5919 5920 5923 5925 5929 5933 5934 5937 5937 5938 5940 5936 5937 5932 5928 5937 5931 5929 5930 5923
5824 5829 5833 5839 5844 5849 5854 5858 5863 5868 5868 5875 5873 5879 5882 5886 5889 5891 5895 5898 5900 5903 5906 5910 5913 5916 5918 5919 5922 5926 5929 5930 5932 5934 5935 5936 5938 5938 5920 5927 5931 5926 5927 5928 5922
5818 5822 5827 5832 5835 5844 5848 5852 5857 5858 5871 5873 5872 5875 5879 5882 5886 5887 5890 5893 5897 5899 5902 5906 5909 5911 5914 5916 5919 5922 5926 5928 5930 5931 5930 5933 5934 5936 5926 5927 5927 5923 5923 5923 5921
5810 5815 5820 5824 5830 5834 5840 5846 5847 5855 5863 5871 5872 5875 5875 5879 5881 5884 5886 5889 5892 5895 5900 5903 5907 5909 5912 5914 5918 5918 5922 5926 5928 5930 5923 5922 5927 5925 5924 5924 5925 5923 5921 5920 5917
5805 5809 5813 5816 5821 5826 5832 5835 5842 5851 5862 5865 5868 5869 5874 5878 5882 5880 5882 5886 5889 5892 5895 5902 5906 5909 5906 5909 5913 5916 5916 5921 5923 5924 5924 5921 5916 5917 5919 5917 5916 5916 5916 5916 5915
5799 5803 5807 5810 5813 5817 5823 5829 5838 5848 5846 5851 5857 5864 5867 5874 5878 5879 5880 5883 5886 5890 5891 5896 5899 5903 5906 5906 5907 5911 5918 5918 5919 5921 5920 5924 5920 5913 5908 5912 5911 5911 5911 5912 5911
5794 5797 5802 5804 5807 5811 5816 5826 5834 5834 5837 5845 5850 5855 5860 5870 5875 5874 5876 5881 5882 5886 5890 5891 5894 5900 5903 5901 5905 5908 5909 5912 5917 5920 5916 5915 5912 5910 5908 5896 5910 5910 5909 5909 5909
5788 5792 5797 5800 5805 5808 5812 5819 5823 5824 5829 5837 5843 5848 5852 5860 5863 5867 5873 5878 5880 5881 5887 5887 5889 5892 5897 5900 5899 5901 5907 5908 5910 5913 5913 5912 5909 5910 5901 5901 5905 5905 5904 5905 5906
5781 5785 5792 5795 5800 5804 5809 5812 5811 5818 5826 5830 5835 5840 5844 5849 5852 5858 5866 5867 5869 5873 5876 5881 5883 5886 5891 5895 5897 5897 5900 5905 5905 5906 5906 5907 5905 5900 5899 5900 5898 5900 5901 5902 5903
5777 5781 5784 5787 5792 5798 5801 5805 5809 5815 5818 5821 5826 5831 5835 5841 5844 5851 5857 5862 5862 5867 5869 5873 5877 5879 5886 5891 5897 5895 5895 5897 5899 5901 5904 5907 5905 5892 5891 5890 5893 5896 5899 5900 5901
5774 5776 5780 5783 5786 5790 5794 5799 5805 5809 5813 5816 5821 5826 5831 5835 5839 5844 5850 5852 5856 5859 5863 5867 5868 5873 5877 5883 5886 5888 5888 5890 5891 5894 5895 5902 5897 5886 5890 5891 5889 5885 5900 5896 5897
5770 5772 5777 5778 5783 5786 5788 5794 5799 5804 5806 5811 5816 5821 5824 5827 5833 5837 5842 5846 5849 5852 5852 5860 5861 5866 5869 5875 5877 5881 5885 5884 5886 5887 5889 5891 5886 5883 5887 5888 5885 5889 5896 5894 5893
5767 5769 5771 5774 5779 5783 5786 5788 5790 5792 5800 5807 5809 5813 5817 5819 5822 5828 5827 5832 5839 5842 5845 5850 5855 5859 5862 5869 5871 5872 5878 5881 5883 5883 5880 5883 5881 5880 5882 5881 5882 5882 5888 5889 5890